184  
ASUS41 KBOX 201710  
RWRBOX  
 
REGIONAL WEATHER ROUNDUP  
NATIONAL WEATHER SERVICE BOSTON/NORTON MA  
100 PM EDT SAT OCT 20 2018  
 
NOTE: "FAIR" INDICATES FEW OR NO CLOUDS BELOW 12,000 FEET WITH NO  
SIGNIFICANT WEATHER AND/OR S TO VISIBILITY
.  
 
MAZALL-201800-  
EASTERN MASSACHUSETTS  
 
CITY SKY/WX TMP DP RH WIND PRES REMARKS
 
BOSTON FAIR 64 47 53 W13G21 29.61F  
BEVERLY PTSUNNY 61 46 57 W14G22 29.59F  
LAWRENCE CLOUDY 62 46 55 SW12 29.61F  
BEDFORD PTSUNNY 61 46 57 SW10 29.60F  
BLUE HILL N/A 60 48 64 W15G25 29.61F  
NORWOOD FAIR 65 50 58 W15G22 29.62F  
MARSHFIELD CLOUDY 64 52 63 W8G17 29.61F  
PLYMOUTH CLOUDY 63 52 67 SW12 29.63F  
TAUNTON CLOUDY 62 50 64 W9 29.63F  
NEW BEDFORD PTSUNNY 63 54 72 W17 29.62F  

 
 
MAZALL-201800-  
CAPE COD AND THE ISLANDS  
 
CITY SKY/WX TMP DP RH WIND PRES REMARKS
 
FALMOUTH PTSUNNY 61 54 77 SW24G30 29.63F  
HYANNIS CLOUDY 63 55 75 SW16G25 29.62F  
CHATHAM CLOUDY 62 55 77 SW12G18 29.64F  
PROVINCETOWN FAIR 63 54 72 W15 29.62F  
NANTUCKET CLOUDY 59 56 89 W15 29.67F  
MARTHAS VNYRD PTSUNNY 62 53 72 W12G25 29.64F  

 
 
MAZALL-201800-  
CENTRAL AND WESTERN MASSACHUSETTS  
 
CITY SKY/WX TMP DP RH WIND PRES REMARKS
 
WORCESTER CLOUDY 56 46 69 W15 29.62F  
FITCHBURG CLOUDY 59 45 59 VRB7 29.61F  
ORANGE CLOUDY 59 43 55 SW12 29.62F  
SPRINGFIELD PTSUNNY 61 45 54 W14 29.61F  
WESTFIELD CLOUDY 60 46 59 W8 29.62F  
NORTH ADAMS LGT RAIN 50 48 93 W5 29.63S  
PITTSFIELD RAIN 52 44 74 W14G25 29.62F  

 
 
RIZALL-201800-  
RHODE ISLAND  
 
CITY SKY/WX TMP DP RH WIND PRES REMARKS
 
PROVIDENCE CLOUDY 62 50 64 W9 29.64F  
NEWPORT CLOUDY 61 52 72 VRB7G20 29.64F  
BLOCK ISLAND FAIR 62 53 72 W18G25 29.67  
SMITHFIELD PTSUNNY 58 48 69 W10G20 29.63F  
WESTERLY CLOUDY 61 52 72 SW10G20 29.66F  

 
 
CTZALL-201800-  
CONNECTICUT  
 
CITY SKY/WX TMP DP RH WIND PRES REMARKS
 
BRADLEY INTL PTSUNNY 62 45 53 W10 29.63F  
HARTFORD PTSUNNY 62 47 57 W8 29.64F  
BRIDGEPORT FAIR 62 48 60 SW10G20 29.67F  
DANBURY CLOUDY 58 47 66 W10 29.68F  
GROTON CLOUDY 61 50 67 W14G21 29.65F  
NEW HAVEN PTSUNNY 62 49 62 W13G18 29.66F  
CHESTER PTSUNNY 61 48 63 VRB7G15 29.66F  
MERIDEN CLOUDY 60 47 61 W6 29.66F  
WILLIMANTIC N/A 61 50 67 W8G20 29.65F  
OXFORD CLOUDY 57 48 72 W8 29.67F  

 
 
MEZ002-015-021-024-NHZ003-005-008-011-012-014-VTZ005-008-201800-  
NORTHERN NEW ENGLAND  
 
CITY SKY/WX TMP DP RH WIND PRES REMARKS
 
PORTLAND ME PTSUNNY 62 46 55 SW10G20 29.55F  
BANGOR ME PTSUNNY 62 43 49 SW15G25 29.48F  
CONCORD NH CLOUDY 58 44 60 SW12G24 29.58F  
MANCHESTER NH CLOUDY 61 46 57 SW9 29.58F  
NASHUA NH CLOUDY 60 47 61 W9G22 29.60F  
PORTSMOUTH NH PTSUNNY 60 45 57 W12 29.56  
JAFFREY NH CLOUDY 58 45 62 SW9G16 29.61F  
KEENE NH NOT AVBL  
BURLINGTON VT FAIR 62 31 31 W15G23 29.52S  
MT. WASHINGTON FOG 28 28 100 W52G67 N/A VSB 0 WCI 9  

 
 
NYZ052-076-201800-  
EASTERN NEW YORK  
 
CITY SKY/WX TMP DP RH WIND PRES REMARKS
 
ALBANY PTSUNNY 59 45 59 W8 29.64F  
NEW YORK CITY PTSUNNY 61 47 59 W15 29.69F  

 
 
ANZALL-201800-  
MARINE OBSERVATIONS  
 
STATION/POSITION TIME TEMP WIND PRES VSBY WAVE
 
AIR SEA DIR/SP/G HT/PER  
(UTC) (F) (DEG/KT/KT) (MB) (MI) (FT/S)  
BOSTON BUOY 1650 59 57 230/ 14/ 16 1002.2F 2/ 3  
BUZZARDS BAY 1600 59 240/ 24/ 26 1004.8F  
NANTUCKET SOUND 1650 60 59 230/ 16/ 19 1003.8F 2/ 4  
MASS BAY-STELLWA 1604 57 56 260/ 17/ 21 1001.8F 1 7/8 4/ 4  
ISLE OF SHOALS 1600 58 240/ 20/ 22 1001.4F  
S OF BLOCK IS 1643 63 N/A 10/ 8  

 
   
.....................KEY......................
 
 
SKY/WX - SKY CONDITION/PRESENT WEATHER  
TMP - TEMPERATURE IN FAHRENHEIT  
DWPT - DEWPOINT IN FAHRENHEIT  
RH - RELATIVE HUMIDITY IN PERCENT  
WIND - DIRECTION AND SPEED IN MPH  
PRES - MEAN SEA LEVEL PRESSURE IN INCHES OF HG  
WCI - WIND CHILL INDEX  
VSB - VISIBILITY IN MILES  
HX - HEAT INDEX  
TC - TEMPERATURE IN CELSIUS  
VRB - VARIABLE WIND DIRECTION  
N/A - NOT AVAILABLE  
 
 
CLICK HERE TO GO TO PREVIOUS BULLETINS.

The Nexlab MA Page
The Nexlab RI Page
The Nexlab NH Page
The Nexlab CT Page Main Text Page